User: anonymous
Location: Oshawa
(43.9000°N, 78.8670°W)
Time: 13:33:36
(UTC-04:00)
Language:

SPOT 5 - Orbit

View from above orbital plane
View from above orbital plane
View from above satellite
View from above satellite

Ground track
Ground track

The orbit data is extracted from the following two-line orbital elements,

1 27421U 02021A   14260.15756168  .00000013  00000-0  26038-4 0  9316
2 27421 098.5521 320.3282 0001190 091.1389 347.9296 14.20100696641370
Epoch (UTC): 17 September 2014 03:46:53
Eccentricity: 0.0001190
inclination: 98.5521°
perigee height: 824 km
apogee height: 826 km
right ascension of ascending node: 320.3282°
argument of perigee: 91.1389°
revolutions per day: 14.20100696
mean anomaly at epoch: 347.9296°
orbit number at epoch: 64137

The dashed part of the orbit path shows where the satellite is in the earth's shadow,  

DLR